Zurück zum Katalog

ONEWEB-0164

AktivKommunikationPO
NORAD 48063·PAYLOAD·🇬🇧 United Kingdom

Gestartet Mar 25, 2021 von Vostochny Cosmodrome

Loading…

Nächste Überflüge (nächste 24 Stunden)

TLE

AktuellSource: CelesTrak SupGP

Epoche: Sep 14, 2026, 15:01 UTC

1 48063C 21025X   26257.62623102  .00000540  00000+0  14797-2 0  2570
2 48063  87.8916 302.4334 0001995  95.8517   5.4396 13.13466969    16

Verfolge ONEWEB-0164 in Echtzeit mit AllMySat

Download on the App Store